Terminal Aerodrome Forecast
Issued by NWS

Current Version | Previous Version | Graphics & Text | Print | Product List | Glossary On
Versions: 1 2 3 4 5 6 7 8 9 10 11 12 13 14 15 16 17 18 19 20 21 22 23 24 25 26 27 28 29 30 31
000
FTUS41 KPBZ 200900 AAB
TAFHLG
TAF AMD
KHLG 200930Z 2010/2106 01008KT 5SM BR VCSH BKN020 OVC040
      TEMPO 2010/2012 1SM TSRA BR BKN010CB OVC020
     FM201200 20005KT P6SM SCT030 BKN080
     FM201800 22010KT P6SM VCTS BKN040CB
     FM210100 23004KT P6SM SCT040=

USA.gov is the U.S. government's official web portal to all federal, state and local government web resources and services.